Weather in Gostagaevskaya

Russia / Krasnodar Krai     45°01′20″N   37°30′14″E
temp.,
°C
wind,
m/s
gust,
m/s
humid.,
%
clouds,
%
prec.,
mm/h
press.,
hPa
HPBL,
m
22 april, thu
thu2200:00+7ssw239371 0.0 102155
03:00+7ssw22935 0.0 102216
06:00+7se119289 0.0 102210
09:00+12ne1168100 0.0 1023490
12:00+15wnw3355100 0.0 10221137
15:00+13wsw4461100 0.0 1023522
18:00+12wsw45695 0.0 1023380
21:00+8sw22890 0.0 102422
23 april, fri
fri2300:00+8ssw22880 0.0 102426
03:00+7s33890 0.0 102441
06:00+7s34890 0.0 102455
09:00+13ssw56645 0.0 1024593
12:00+15ssw6756100 0.0 10231031
15:00+15s6756100 0.0 1022887
18:00+13s3767100 0.0 1021441
21:00+10ssw2270100 0.0 102019
24 april, sat
sat2400:00+10s3779100 0.0 1020202
03:00+9s37819 0.0 1019201
06:00+8s38936 0.0 1019162
09:00+12wsw347953 0.0 1020492
12:00+14w446797 0.0 1020916
15:00+14nw446758 0.0 1021990
18:00+12nnw4460100 0.0 1021598
21:00+9n1156100 0.0 102311
25 april, sun
sun2500:00+8nne1157100 0.0 102211
03:00+7n1263100 0.0 102213
06:00+6ne41086100 0.0 1022318
09:00+9ne7962100 0.0 1021598
12:00+10ne7857100 0.0 1020902
15:00+11ne6763100 0.1 10191039
18:00+9ne6981100 0.3 1018759
21:00+7ne61191100 0.9 1018473
26 april, mon
mon2600:00+7ne51092100 0.3 1017425
03:00+6ne4995100 0.5 1017341
06:00+7nne3797100 0.1 1016309
09:00+7nne3696100 0.3 1017319
12:00+9nne5691100 0.0 1018570
15:00+11nne5776100 0.1 1017929
18:00+11nne456599 0.0 1018654
21:00+6nne2275100 0.0 101916